Flag for Canada Weather past 2 weeks in Wood Buffalo, Alberta, Canada

Now
71 °F

Mild.


Feels Like: 77 °F
Forecast: 49 / 78 °F
Wind: 2 mph from Northeast

Location: Fort McMurray CS

Current Time: Jul 31, 2015 at 11:54:41 AM

Latest Report: Jul 31, 2015 at 11:00 AM


Visibility: N/A

Pressure: 29.97 "Hg

Humidity: 40%

Dew point: 46 °F

Location of Wood BuffaloLocation

Historic Weather in Wood Buffalo — Graph

°F

Wood Buffalo temperature yesterday

Maximum temperature yesterday: 76 °F (at 4:00 PM)
Minimum temperature yesterday: 51 °F (at 6:00 AM)
Average temperature yesterday: 64 °F

Past Weeks' High & Low Weather Summary

 TemperatureHumidityPressure
High78 °F (Jul 24, 6:00 PM)97% (Jul 17, 2:00 AM)30.01 "Hg (Jul 17, 2:00 AM)
Low46 °F (Jul 20, 4:00 AM)22% (Jul 30, 4:00 PM)29.45 "Hg (Jul 18, 9:00 PM)
Average63 °F68%29.73 "Hg
* Reported Jul 16 10:00 AM — Jul 31 10:00 AM, Wood Buffalo, Weather by CustomWeather, © 2015

Note: Actual official high and low records may vary slightly from our data, if they occured in-between our weather recording intervals... More about our weather records

Advertising

Wood Buffalo weather history for previous 24 hours

 ConditionsComfort  
Time TempWeatherWind HumidityBarometerVisibility
10:00 AM
Fri, Jul 31
67 °FMild.2 mph54%29.98 "HgN/A
9:00 AM63 °FMild.3 mph54%29.99 "HgN/A
8:00 AM58 °FCool.2 mph63%30.01 "HgN/A
7:00 AM53 °FCool.3 mph76%30.01 "HgN/A
6:00 AM47 °FCool.5 mph85%30.01 "HgN/A
5:00 AM48 °FCool.5 mph88%30.01 "HgN/A
4:00 AM49 °FCool.3 mph85%30.01 "HgN/A
3:00 AM53 °FCool.6 mph82%30.01 "HgN/A
2:00 AM51 °FCool.3 mph86%30.00 "HgN/A
1:00 AM55 °FCool.2 mph76%30.01 "HgN/A
12:00 AM55 °FCool.2 mph74%30.01 "HgN/A
11:00 PM
Thu, Jul 30
57 °FCool.3 mph74%30.00 "HgN/A
10:00 PM62 °FRefreshingly cool.3 mph57%30.00 "HgN/A
9:00 PM67 °FMild.5 mph47%29.97 "HgN/A
8:00 PM71 °FMild.3 mph37%29.96 "HgN/A
7:00 PM74 °FMild.14 mph26%29.95 "HgN/A
6:00 PM76 °FMild.13 mph24%29.95 "HgN/A
5:00 PM76 °FMild.14 mph27%29.95 "HgN/A
4:00 PM76 °FMild.20 mph22%29.94 "HgN/A
3:00 PM75 °FMild.16 mph29%29.95 "HgN/A
2:00 PM75 °FMild.18 mph25%29.94 "HgN/A
1:00 PM71 °FMild.6 mph37%29.95 "HgN/A
12:00 PM70 °FMild.12 mph42%29.96 "HgN/A
11:00 AM69 °FMild.10 mph43%29.96 "HgN/A
Weather by CustomWeather, © 2015

See weather overviewHow to use our weather pages